QPF
0.02 0.03 0.03 0.03 0.03 0.02 0.02 0.01 0.01 0.01 0.02 0.02 0.03 0.03 0.04 0.05 0.05 0.06 0.07 0.08 0.08 0.09 0.10 0.10 0.10 0.10 0.09 0.08 0.06 0.05 0.04 0.03 0.04 0.03 0.03 0.03 0.03 0.02 0.02 0.02 0.01 0.01 0.01
0.02 0.03 0.03 0.02 0.03 0.03 0.02 0.02 0.01 0.01 0.02 0.01 0.01 0.01 0.02 0.02 0.03 0.04 0.04 0.05 0.05 0.05 0.06 0.06 0.07 0.08 0.09 0.09 0.08 0.07 0.06 0.05 0.04 0.03 0.03 0.02 0.02 0.01 0.01 0.01 0.00 0.00 0.00
0.01 0.02 0.04 0.03 0.03 0.03 0.02 0.02 0.02 0.01 0.01 0.01 0.01 0.01 0.01 0.01 0.01 0.02 0.03 0.03 0.03 0.04 0.04 0.04 0.04 0.04 0.05 0.06 0.06 0.06 0.05 0.04 0.03 0.02 0.02 0.02 0.02 0.01 0.01 0.01 0.00 0.00 0.00
0.00 0.01 0.02 0.03 0.03 0.02 0.02 0.02 0.02 0.01 0.01 0.01 0.01 0.01 0.01 0.01 0.01 0.01 0.01 0.01 0.01 0.02 0.02 0.02 0.02 0.02 0.02 0.03 0.03 0.03 0.03 0.03 0.03 0.02 0.02 0.02 0.02 0.02 0.02 0.01 0.01 0.00 0.00
0.01 0.01 0.01 0.01 0.02 0.03 0.03 0.02 0.02 0.02 0.02 0.01 0.01 0.01 0.01 0.01 0.01 0.01 0.00 0.00 0.01 0.01 0.01 0.01 0.01 0.01 0.02 0.02 0.02 0.02 0.02 0.02 0.03 0.02 0.02 0.01 0.02 0.02 0.02 0.01 0.01 0.00 0.00
0.01 0.01 0.01 0.01 0.01 0.02 0.02 0.02 0.03 0.02 0.01 0.01 0.01 0.01 0.01 0.01 0.01 0.01 0.00 0.00 0.00 0.01 0.01 0.01 0.01 0.01 0.01 0.01 0.02 0.01 0.01 0.01 0.02 0.02 0.02 0.01 0.01 0.01 0.01 0.01 0.01 0.01 0.00
0.01 0.01 0.01 0.01 0.01 0.01 0.02 0.02 0.02 0.02 0.02 0.01 0.01 0.01 0.01 0.01 0.01 0.01 0.01 0.01 0.01 0.01 0.01 0.01 0.01 0.01 0.01 0.01 0.01 0.02 0.01 0.01 0.01 0.01 0.01 0.01 0.01 0.01 0.01 0.01 0.01 0.01 0.01
0.01 0.01 0.01 0.01 0.02 0.01 0.01 0.01 0.02 0.02 0.02 0.02 0.01 0.01 0.01 0.01 0.01 0.01 0.01 0.01 0.01 0.01 0.01 0.01 0.01 0.01 0.01 0.01 0.02 0.02 0.01 0.01 0.01 0.01 0.00 0.01 0.01 0.01 0.01 0.01 0.01 0.01 0.01
0.02 0.01 0.01 0.01 0.02 0.01 0.01 0.01 0.01 0.02 0.02 0.02 0.01 0.01 0.01 0.01 0.02 0.02 0.02 0.02 0.02 0.01 0.01 0.01 0.01 0.01 0.02 0.02 0.02 0.03 0.02 0.02 0.02 0.02 0.01 0.01 0.01 0.01 0.01 0.01 0.01 0.02 0.02
0.02 0.01 0.01 0.01 0.01 0.01 0.01 0.01 0.01 0.01 0.01 0.02 0.02 0.01 0.01 0.01 0.02 0.02 0.02 0.02 0.02 0.01 0.01 0.01 0.01 0.01 0.01 0.02 0.02 0.02 0.03 0.02 0.02 0.02 0.02 0.02 0.02 0.02 0.02 0.01 0.01 0.02 0.02
0.02 0.01 0.01 0.01 0.01 0.01 0.01 0.01 0.01 0.01 0.02 0.02 0.03 0.03 0.02 0.02 0.03 0.03 0.02 0.02 0.02 0.01 0.01 0.01 0.01 0.01 0.01 0.01 0.02 0.02 0.02 0.03 0.03 0.02 0.03 0.02 0.02 0.02 0.02 0.02 0.01 0.01 0.01
0.03 0.02 0.01 0.01 0.01 0.01 0.01 0.01 0.01 0.02 0.02 0.03 0.04 0.04 0.04 0.04 0.03 0.03 0.03 0.02 0.02 0.01 0.01 0.01 0.01 0.01 0.01 0.02 0.02 0.02 0.02 0.03 0.04 0.04 0.04 0.04 0.03 0.02 0.02 0.02 0.02 0.01 0.01
0.02 0.03 0.03 0.02 0.01 0.01 0.01 0.01 0.02 0.02 0.02 0.03 0.03 0.04 0.04 0.03 0.02 0.02 0.02 0.02 0.01 0.01 0.01 0.01 0.01 0.01 0.01 0.02 0.02 0.03 0.03 0.03 0.04 0.04 0.04 0.04 0.04 0.03 0.02 0.02 0.02 0.02 0.02
0.02 0.02 0.03 0.03 0.02 0.01 0.01 0.01 0.01 0.01 0.01 0.02 0.02 0.02 0.03 0.02 0.02 0.02 0.02 0.01 0.01 0.01 0.01 0.01 0.01 0.01 0.01 0.02 0.02 0.03 0.03 0.03 0.04 0.04 0.04 0.04 0.05 0.05 0.05 0.03 0.03 0.03 0.03
0.02 0.02 0.02 0.03 0.02 0.01 0.01 0.01 0.01 0.01 0.01 0.01 0.01 0.02 0.03 0.02 0.02 0.02 0.02 0.02 0.02 0.02 0.01 0.01 0.01 0.01 0.01 0.02 0.02 0.02 0.03 0.03 0.04 0.04 0.05 0.05 0.05 0.05 0.05 0.05 0.04 0.04 0.03
0.02 0.02 0.02 0.02 0.02 0.01 0.01 0.01 0.01 0.01 0.01 0.01 0.02 0.02 0.02 0.03 0.03 0.03 0.03 0.03 0.03 0.02 0.02 0.02 0.02 0.01 0.01 0.02 0.02 0.03 0.03 0.03 0.04 0.04 0.05 0.06 0.06 0.06 0.06 0.06 0.05 0.05 0.04
0.02 0.02 0.02 0.02 0.02 0.02 0.01 0.01 0.01 0.02 0.02 0.02 0.02 0.02 0.02 0.03 0.03 0.03 0.03 0.03 0.03 0.02 0.02 0.02 0.02 0.02 0.01 0.01 0.02 0.02 0.03 0.04 0.04 0.04 0.05 0.05 0.06 0.06 0.06 0.06 0.06 0.06 0.05
0.01 0.01 0.02 0.02 0.02 0.02 0.02 0.01 0.01 0.02 0.02 0.02 0.03 0.03 0.02 0.03 0.03 0.03 0.03 0.03 0.04 0.03 0.02 0.02 0.02 0.02 0.02 0.02 0.02 0.02 0.03 0.03 0.04 0.04 0.04 0.04 0.05 0.06 0.06 0.06 0.06 0.05 0.05
0.01 0.01 0.02 0.02 0.02 0.02 0.02 0.02 0.02 0.02 0.03 0.03 0.03 0.05 0.05 0.04 0.04 0.04 0.03 0.03 0.04 0.04 0.03 0.02 0.02 0.02 0.02 0.02 0.02 0.03 0.03 0.03 0.04 0.05 0.05 0.04 0.04 0.05 0.05 0.05 0.05 0.05 0.05
0.00 0.01 0.02 0.02 0.02 0.02 0.02 0.02 0.02 0.02 0.03 0.03 0.04 0.06 0.07 0.08 0.07 0.06 0.05 0.04 0.04 0.03 0.03 0.03 0.02 0.02 0.02 0.03 0.03 0.03 0.03 0.03 0.03 0.04 0.04 0.04 0.04 0.04 0.04 0.04 0.04 0.04 0.04
0.00 0.01 0.01 0.02 0.02 0.02 0.02 0.02 0.02 0.03 0.03 0.04 0.05 0.05 0.05 0.06 0.06 0.05 0.05 0.04 0.03 0.03 0.03 0.03 0.03 0.03 0.02 0.02 0.03 0.03 0.03 0.03 0.03 0.03 0.04 0.04 0.04 0.04 0.04 0.04 0.04 0.04 0.04
0.01 0.01 0.01 0.02 0.02 0.02 0.02 0.02 0.03 0.03 0.03 0.04 0.05 0.05 0.05 0.04 0.04 0.04 0.03 0.03 0.03 0.03 0.03 0.03 0.04 0.03 0.02 0.02 0.02 0.02 0.02 0.02 0.03 0.03 0.03 0.03 0.03 0.03 0.03 0.03 0.04 0.04 0.04
0.01 0.01 0.01 0.01 0.02 0.02 0.02 0.02 0.03 0.03 0.03 0.04 0.05 0.05 0.05 0.04 0.04 0.04 0.04 0.03 0.03 0.03 0.03 0.03 0.03 0.03 0.02 0.02 0.02 0.02 0.02 0.02 0.02 0.03 0.04 0.04 0.04 0.03 0.03 0.03 0.03 0.03 0.03
0.01 0.01 0.01 0.01 0.01 0.01 0.02 0.02 0.02 0.03 0.03 0.03 0.03 0.03 0.04 0.04 0.04 0.04 0.04 0.04 0.04 0.03 0.03 0.03 0.03 0.02 0.02 0.02 0.02 0.02 0.02 0.02 0.02 0.03 0.04 0.04 0.04 0.03 0.03 0.03 0.03 0.03 0.03
0.01 0.01 0.01 0.01 0.01 0.01 0.01 0.02 0.02 0.02 0.03 0.03 0.02 0.02 0.03 0.03 0.03 0.03 0.03 0.03 0.04 0.04 0.03 0.03 0.03 0.03 0.02 0.02 0.02 0.01 0.02 0.02 0.03 0.04 0.04 0.04 0.03 0.03 0.03 0.03 0.03 0.03 0.03
0.00 0.01 0.01 0.01 0.01 0.01 0.01 0.01 0.01 0.02 0.02 0.02 0.02 0.02 0.02 0.02 0.02 0.02 0.03 0.03 0.03 0.03 0.03 0.03 0.03 0.03 0.03 0.02 0.02 0.02 0.02 0.02 0.02 0.03 0.04 0.05 0.04 0.03 0.03 0.03 0.03 0.03 0.04
MSLP
1014.99 1015.33 1015.66 1016.01 1016.39 1016.82 1017.30 1017.83 1018.39 1018.96 1019.51 1020.01 1020.44 1020.79 1021.06 1021.28 1021.47 1021.65 1021.84 1022.06 1022.30 1022.54 1022.78 1022.97 1023.10 1023.15 1023.11 1022.98 1022.76 1022.49 1022.17 1021.84 1021.51 1021.18 1020.88 1020.59 1020.31 1020.03 1019.74 1019.44 1019.12 1018.78 1018.42
1015.14 1015.49 1015.83 1016.18 1016.56 1016.98 1017.45 1017.97 1018.53 1019.09 1019.64 1020.15 1020.59 1020.96 1021.25 1021.48 1021.68 1021.86 1022.05 1022.25 1022.47 1022.69 1022.90 1023.07 1023.19 1023.24 1023.20 1023.08 1022.89 1022.63 1022.33 1022.01 1021.67 1021.34 1021.01 1020.69 1020.37 1020.04 1019.70 1019.34 1018.96 1018.55 1018.13
1015.40 1015.76 1016.12 1016.47 1016.85 1017.26 1017.72 1018.22 1018.77 1019.33 1019.88 1020.39 1020.84 1021.23 1021.54 1021.78 1021.98 1022.15 1022.31 1022.48 1022.65 1022.83 1022.99 1023.13 1023.22 1023.25 1023.21 1023.10 1022.91 1022.67 1022.39 1022.08 1021.75 1021.41 1021.07 1020.72 1020.37 1020.01 1019.62 1019.22 1018.78 1018.33 1017.85
1015.74 1016.14 1016.51 1016.87 1017.24 1017.64 1018.08 1018.57 1019.10 1019.65 1020.20 1020.72 1021.18 1021.58 1021.89 1022.14 1022.33 1022.48 1022.60 1022.72 1022.83 1022.95 1023.06 1023.14 1023.20 1023.20 1023.15 1023.03 1022.85 1022.62 1022.35 1022.04 1021.71 1021.36 1021.01 1020.65 1020.28 1019.89 1019.48 1019.04 1018.58 1018.09 1017.57
1016.18 1016.60 1016.98 1017.34 1017.71 1018.09 1018.52 1018.99 1019.50 1020.04 1020.58 1021.10 1021.56 1021.96 1022.28 1022.51 1022.68 1022.80 1022.88 1022.95 1023.00 1023.05 1023.09 1023.12 1023.13 1023.10 1023.02 1022.90 1022.71 1022.48 1022.20 1021.88 1021.55 1021.19 1020.82 1020.45 1020.06 1019.66 1019.24 1018.80 1018.32 1017.82 1017.28
1016.71 1017.13 1017.52 1017.88 1018.23 1018.60 1019.01 1019.45 1019.94 1020.46 1020.98 1021.48 1021.94 1022.32 1022.63 1022.85 1023.00 1023.08 1023.11 1023.12 1023.11 1023.10 1023.09 1023.06 1023.02 1022.96 1022.85 1022.70 1022.50 1022.25 1021.96 1021.63 1021.27 1020.89 1020.51 1020.12 1019.73 1019.33 1018.91 1018.48 1018.01 1017.51 1016.97
1017.29 1017.72 1018.10 1018.45 1018.79 1019.14 1019.51 1019.93 1020.39 1020.87 1021.36 1021.84 1022.27 1022.63 1022.91 1023.10 1023.22 1023.26 1023.26 1023.21 1023.16 1023.09 1023.02 1022.95 1022.87 1022.77 1022.64 1022.46 1022.24 1021.96 1021.64 1021.29 1020.90 1020.50 1020.10 1019.70 1019.30 1018.90 1018.51 1018.09 1017.65 1017.17 1016.64
1017.92 1018.32 1018.68 1019.01 1019.33 1019.66 1020.01 1020.39 1020.81 1021.25 1021.70 1022.13 1022.52 1022.84 1023.08 1023.24 1023.32 1023.33 1023.28 1023.20 1023.10 1022.99 1022.89 1022.78 1022.67 1022.54 1022.38 1022.17 1021.92 1021.62 1021.28 1020.89 1020.47 1020.05 1019.62 1019.21 1018.81 1018.42 1018.04 1017.65 1017.24 1016.80 1016.30
1018.55 1018.92 1019.25 1019.56 1019.86 1020.16 1020.47 1020.82 1021.19 1021.58 1021.97 1022.34 1022.67 1022.95 1023.14 1023.26 1023.30 1023.27 1023.19 1023.08 1022.95 1022.81 1022.68 1022.55 1022.41 1022.25 1022.07 1021.84 1021.56 1021.24 1020.86 1020.45 1020.01 1019.56 1019.12 1018.69 1018.29 1017.91 1017.55 1017.18 1016.80 1016.39 1015.92
1019.16 1019.48 1019.79 1020.07 1020.34 1020.61 1020.90 1021.20 1021.52 1021.85 1022.17 1022.48 1022.74 1022.95 1023.09 1023.16 1023.16 1023.11 1023.00 1022.86 1022.71 1022.55 1022.40 1022.24 1022.08 1021.91 1021.70 1021.46 1021.16 1020.82 1020.42 1019.99 1019.53 1019.06 1018.61 1018.17 1017.76 1017.38 1017.03 1016.68 1016.32 1015.92 1015.48
1019.71 1019.99 1020.26 1020.52 1020.77 1021.01 1021.26 1021.52 1021.78 1022.04 1022.30 1022.53 1022.73 1022.88 1022.97 1022.99 1022.96 1022.87 1022.74 1022.58 1022.41 1022.24 1022.06 1021.88 1021.70 1021.50 1021.28 1021.02 1020.71 1020.35 1019.95 1019.51 1019.04 1018.56 1018.10 1017.65 1017.23 1016.84 1016.48 1016.12 1015.76 1015.37 1014.93
1020.17 1020.42 1020.67 1020.90 1021.12 1021.34 1021.55 1021.76 1021.96 1022.16 1022.35 1022.52 1022.65 1022.74 1022.78 1022.76 1022.70 1022.59 1022.44 1022.27 1022.08 1021.88 1021.68 1021.48 1021.27 1021.04 1020.80 1020.52 1020.20 1019.84 1019.43 1018.99 1018.53 1018.05 1017.58 1017.12 1016.68 1016.27 1015.88 1015.49 1015.10 1014.68 1014.23
1020.53 1020.76 1020.99 1021.20 1021.40 1021.58 1021.75 1021.91 1022.05 1022.19 1022.32 1022.42 1022.50 1022.54 1022.54 1022.50 1022.42 1022.29 1022.13 1021.94 1021.72 1021.50 1021.27 1021.03 1020.79 1020.53 1020.26 1019.96 1019.64 1019.27 1018.88 1018.45 1017.99 1017.52 1017.04 1016.57 1016.10 1015.65 1015.21 1014.76 1014.32 1013.85 1013.35
1020.79 1021.00 1021.21 1021.40 1021.57 1021.72 1021.84 1021.94 1022.04 1022.11 1022.18 1022.24 1022.27 1022.28 1022.26 1022.21 1022.11 1021.98 1021.80 1021.60 1021.36 1021.10 1020.83 1020.55 1020.27 1019.98 1019.67 1019.36 1019.02 1018.67 1018.28 1017.87 1017.42 1016.96 1016.47 1015.98 1015.48 1014.97 1014.46 1013.94 1013.41 1012.87 1012.31
1020.93 1021.14 1021.32 1021.49 1021.62 1021.72 1021.80 1021.85 1021.89 1021.92 1021.94 1021.96 1021.96 1021.96 1021.93 1021.88 1021.78 1021.64 1021.47 1021.24 1020.98 1020.69 1020.38 1020.05 1019.72 1019.39 1019.06 1018.72 1018.38 1018.03 1017.66 1017.27 1016.84 1016.38 1015.89 1015.37 1014.82 1014.25 1013.65 1013.04 1012.42 1011.80 1011.17
1020.97 1021.16 1021.32 1021.45 1021.54 1021.59 1021.61 1021.62 1021.60 1021.59 1021.58 1021.57 1021.57 1021.56 1021.54 1021.49 1021.40 1021.27 1021.09 1020.86 1020.57 1020.25 1019.90 1019.53 1019.15 1018.79 1018.43 1018.08 1017.74 1017.40 1017.05 1016.67 1016.27 1015.82 1015.32 1014.77 1014.17 1013.52 1012.84 1012.14 1011.43 1010.71 1010.01
1020.92 1021.08 1021.20 1021.29 1021.32 1021.33 1021.30 1021.25 1021.19 1021.14 1021.11 1021.09 1021.08 1021.08 1021.07 1021.04 1020.97 1020.85 1020.67 1020.42 1020.12 1019.77 1019.39 1018.98 1018.58 1018.19 1017.81 1017.46 1017.13 1016.81 1016.48 1016.13 1015.74 1015.30 1014.79 1014.21 1013.57 1012.86 1012.10 1011.32 1010.52 1009.72 1008.96
1020.79 1020.91 1020.99 1021.02 1021.00 1020.95 1020.87 1020.77 1020.68 1020.61 1020.55 1020.53 1020.52 1020.53 1020.54 1020.52 1020.47 1020.35 1020.18 1019.93 1019.62 1019.25 1018.85 1018.43 1018.00 1017.60 1017.23 1016.89 1016.58 1016.28 1015.98 1015.66 1015.29 1014.86 1014.35 1013.76 1013.07 1012.32 1011.50 1010.65 1009.79 1008.94 1008.15
1020.60 1020.67 1020.69 1020.66 1020.59 1020.49 1020.36 1020.23 1020.11 1020.02 1019.96 1019.93 1019.93 1019.94 1019.96 1019.95 1019.90 1019.79 1019.62 1019.37 1019.05 1018.68 1018.28 1017.85 1017.44 1017.05 1016.70 1016.38 1016.10 1015.84 1015.57 1015.28 1014.94 1014.53 1014.02 1013.42 1012.72 1011.94 1011.09 1010.20 1009.31 1008.45 1007.65
1020.36 1020.37 1020.34 1020.26 1020.14 1019.99 1019.83 1019.68 1019.54 1019.43 1019.36 1019.32 1019.32 1019.33 1019.34 1019.33 1019.28 1019.17 1018.99 1018.75 1018.43 1018.07 1017.68 1017.28 1016.89 1016.53 1016.21 1015.94 1015.70 1015.48 1015.25 1015.00 1014.69 1014.30 1013.81 1013.21 1012.52 1011.73 1010.88 1010.00 1009.12 1008.27 1007.50
1020.10 1020.05 1019.97 1019.84 1019.68 1019.51 1019.32 1019.15 1019.00 1018.88 1018.80 1018.75 1018.73 1018.73 1018.73 1018.70 1018.63 1018.51 1018.32 1018.07 1017.77 1017.42 1017.06 1016.69 1016.35 1016.03 1015.76 1015.54 1015.35 1015.17 1014.99 1014.77 1014.50 1014.14 1013.67 1013.11 1012.44 1011.69 1010.87 1010.03 1009.19 1008.40 1007.68
1019.82 1019.72 1019.60 1019.44 1019.25 1019.06 1018.86 1018.68 1018.52 1018.39 1018.29 1018.23 1018.19 1018.15 1018.11 1018.06 1017.96 1017.81 1017.62 1017.37 1017.08 1016.76 1016.43 1016.10 1015.81 1015.55 1015.34 1015.17 1015.03 1014.90 1014.76 1014.58 1014.33 1014.01 1013.59 1013.06 1012.44 1011.75 1011.00 1010.24 1009.48 1008.77 1008.14
1019.53 1019.40 1019.24 1019.06 1018.86 1018.66 1018.46 1018.27 1018.10 1017.96 1017.84 1017.75 1017.67 1017.60 1017.52 1017.41 1017.28 1017.11 1016.89 1016.64 1016.37 1016.08 1015.79 1015.52 1015.28 1015.08 1014.92 1014.80 1014.70 1014.61 1014.51 1014.36 1014.15 1013.87 1013.49 1013.03 1012.48 1011.87 1011.22 1010.55 1009.91 1009.31 1008.78
1019.23 1019.07 1018.90 1018.71 1018.50 1018.30 1018.10 1017.90 1017.73 1017.57 1017.42 1017.29 1017.17 1017.05 1016.91 1016.76 1016.59 1016.39 1016.16 1015.91 1015.66 1015.40 1015.15 1014.94 1014.75 1014.60 1014.50 1014.42 1014.36 1014.30 1014.22 1014.10 1013.92 1013.68 1013.36 1012.96 1012.50 1011.99 1011.46 1010.91 1010.39 1009.92 1009.50
1018.91 1018.74 1018.56 1018.36 1018.16 1017.95 1017.75 1017.55 1017.35 1017.17 1017.00 1016.83 1016.65 1016.48 1016.30 1016.10 1015.89 1015.66 1015.43 1015.19 1014.96 1014.74 1014.54 1014.37 1014.24 1014.14 1014.07 1014.03 1013.99 1013.95 1013.89 1013.79 1013.64 1013.44 1013.17 1012.85 1012.48 1012.08 1011.67 1011.25 1010.86 1010.51 1010.21
1018.57 1018.39 1018.20 1018.00 1017.79 1017.58 1017.37 1017.16 1016.95 1016.74 1016.53 1016.32 1016.10 1015.88 1015.65 1015.41 1015.18 1014.94 1014.71 1014.49 1014.28 1014.11 1013.95 1013.84 1013.75 1013.69 1013.65 1013.63 1013.61 1013.58 1013.53 1013.44 1013.32 1013.15 1012.94 1012.69 1012.42 1012.12 1011.83 1011.54 1011.27 1011.04 1010.84
Thickness
5545 5546 5547 5549 5550 5551 5551 5552 5553 5553 5553 5554 5554 5554 5554 5553 5554 5554 5554 5554 5555 5555 5555 5555 5556 5556 5557 5556 5556 5557 5558 5559 5560 5559 5555 5553 5550 5549 5548 5548 5548 5548 5548
5535 5536 5538 5539 5539 5540 5541 5541 5541 5542 5542 5542 5543 5544 5544 5543 5543 5543 5544 5544 5544 5545 5545 5544 5545 5545 5545 5545 5545 5546 5546 5546 5547 5547 5545 5542 5541 5539 5537 5537 5537 5537 5537
5525 5526 5527 5527 5528 5529 5530 5530 5530 5530 5531 5531 5532 5533 5533 5532 5532 5532 5532 5532 5533 5533 5533 5534 5534 5534 5534 5534 5534 5534 5534 5534 5534 5534 5534 5532 5529 5527 5526 5525 5525 5525 5525
5514 5515 5515 5516 5517 5518 5518 5518 5519 5519 5519 5519 5520 5520 5520 5520 5520 5520 5519 5520 5521 5521 5522 5522 5523 5523 5524 5523 5523 5523 5522 5521 5521 5522 5522 5520 5518 5515 5514 5513 5514 5513 5512
5503 5504 5505 5505 5505 5506 5506 5506 5506 5506 5506 5507 5507 5507 5507 5507 5507 5507 5507 5507 5508 5509 5509 5510 5510 5510 5511 5511 5511 5511 5510 5510 5509 5509 5509 5508 5506 5504 5503 5502 5501 5501 5500
5493 5493 5494 5494 5494 5494 5494 5493 5493 5493 5493 5494 5494 5494 5494 5494 5494 5493 5493 5493 5494 5496 5497 5496 5497 5497 5497 5497 5496 5496 5496 5497 5496 5496 5496 5496 5497 5494 5492 5489 5487 5487 5488
5482 5481 5482 5482 5483 5482 5481 5481 5481 5481 5480 5480 5481 5481 5481 5481 5480 5480 5479 5479 5481 5482 5483 5483 5484 5484 5483 5484 5483 5482 5482 5481 5481 5482 5483 5485 5484 5482 5478 5476 5475 5474 5476
5469 5468 5468 5468 5469 5469 5469 5469 5469 5468 5468 5467 5467 5467 5467 5467 5467 5467 5466 5466 5468 5469 5469 5470 5471 5471 5470 5469 5470 5470 5470 5470 5469 5468 5469 5471 5469 5467 5465 5463 5462 5460 5459
5455 5455 5455 5455 5456 5456 5456 5456 5455 5454 5454 5453 5453 5453 5454 5454 5453 5453 5453 5454 5455 5455 5455 5455 5455 5456 5456 5454 5455 5457 5458 5458 5456 5454 5454 5455 5454 5452 5450 5447 5446 5445 5447
5441 5442 5442 5442 5443 5443 5443 5442 5441 5440 5440 5439 5440 5440 5441 5441 5440 5440 5439 5441 5442 5443 5442 5441 5440 5441 5441 5439 5440 5442 5444 5445 5443 5443 5442 5442 5441 5440 5437 5435 5435 5433 5432
5428 5428 5428 5429 5429 5429 5428 5427 5427 5426 5426 5427 5426 5427 5427 5427 5427 5426 5426 5427 5428 5429 5429 5429 5429 5427 5427 5426 5426 5428 5430 5429 5429 5429 5429 5430 5429 5427 5425 5423 5422 5421 5420
5414 5415 5414 5415 5414 5414 5413 5413 5413 5413 5413 5413 5413 5413 5413 5413 5413 5414 5414 5413 5414 5415 5416 5416 5416 5414 5413 5413 5414 5415 5415 5413 5414 5416 5416 5416 5416 5415 5413 5411 5409 5408 5408
5400 5400 5400 5400 5400 5400 5400 5400 5400 5400 5401 5401 5402 5402 5402 5401 5401 5400 5400 5400 5400 5401 5402 5402 5401 5400 5400 5401 5402 5402 5401 5402 5402 5403 5403 5403 5403 5401 5399 5397 5396 5395 5394
5387 5387 5387 5388 5388 5388 5388 5388 5388 5389 5389 5389 5389 5390 5390 5390 5389 5388 5388 5388 5387 5387 5388 5389 5388 5388 5388 5389 5390 5390 5390 5391 5391 5391 5391 5390 5389 5387 5386 5385 5384 5383 5382
5375 5375 5376 5376 5376 5376 5376 5376 5376 5377 5377 5377 5377 5377 5378 5379 5378 5376 5376 5376 5376 5376 5375 5376 5377 5377 5378 5378 5379 5379 5379 5378 5378 5378 5378 5377 5376 5375 5374 5372 5371 5371 5371
5364 5364 5364 5364 5364 5364 5364 5364 5363 5363 5364 5364 5364 5364 5365 5366 5365 5364 5363 5363 5363 5362 5361 5364 5365 5365 5366 5367 5367 5367 5367 5366 5366 5365 5365 5365 5364 5363 5362 5361 5361 5360 5361
5352 5352 5352 5352 5352 5352 5353 5353 5354 5353 5353 5353 5353 5353 5353 5354 5353 5352 5351 5351 5351 5350 5350 5353 5353 5354 5354 5354 5354 5354 5354 5354 5353 5353 5353 5353 5352 5351 5350 5350 5350 5350 5351
5341 5340 5340 5341 5341 5341 5342 5342 5343 5343 5344 5345 5344 5343 5343 5343 5343 5342 5341 5340 5341 5341 5341 5342 5342 5342 5342 5342 5342 5342 5342 5342 5342 5342 5342 5341 5341 5340 5340 5340 5340 5340 5341
5330 5331 5331 5331 5331 5331 5331 5331 5332 5332 5333 5334 5335 5335 5334 5333 5332 5331 5330 5331 5332 5332 5332 5332 5332 5332 5331 5331 5330 5330 5330 5331 5331 5331 5331 5331 5331 5330 5331 5331 5331 5331 5331
5320 5320 5319 5320 5321 5321 5321 5321 5322 5322 5323 5324 5324 5325 5324 5323 5323 5322 5321 5321 5322 5323 5323 5323 5322 5321 5321 5320 5320 5320 5320 5320 5321 5321 5322 5322 5321 5321 5321 5321 5321 5322 5322
5311 5311 5310 5310 5311 5311 5311 5312 5312 5312 5313 5314 5314 5314 5313 5312 5313 5313 5313 5312 5313 5313 5313 5313 5313 5312 5311 5311 5311 5310 5310 5311 5311 5311 5312 5312 5312 5311 5312 5312 5313 5313 5313
5301 5301 5301 5301 5301 5302 5302 5302 5302 5303 5303 5304 5304 5304 5303 5303 5304 5304 5304 5304 5304 5304 5304 5304 5304 5304 5303 5303 5302 5302 5302 5302 5302 5302 5302 5303 5303 5303 5303 5304 5304 5305 5305
5291 5291 5291 5292 5291 5292 5292 5293 5293 5293 5293 5294 5294 5294 5294 5294 5295 5295 5295 5295 5295 5295 5295 5295 5295 5295 5295 5294 5294 5294 5294 5295 5294 5294 5294 5295 5295 5295 5296 5297 5297 5298 5298
5281 5282 5282 5283 5282 5283 5283 5284 5284 5284 5284 5284 5284 5284 5285 5285 5286 5286 5286 5286 5286 5287 5287 5287 5287 5288 5287 5287 5287 5287 5287 5287 5287 5287 5287 5288 5288 5289 5290 5290 5291 5292 5292
5273 5273 5274 5274 5274 5274 5275 5275 5275 5275 5275 5275 5275 5276 5276 5277 5277 5278 5278 5278 5278 5279 5279 5279 5280 5280 5281 5281 5281 5281 5281 5281 5281 5281 5281 5281 5283 5283 5284 5285 5286 5286 5287
5264 5265 5265 5265 5265 5266 5266 5266 5266 5266 5266 5267 5267 5267 5268 5269 5269 5270 5270 5270 5270 5271 5272 5273 5274 5274 5275 5275 5276 5276 5276 5277 5277 5276 5276 5277 5278 5279 5280 5281 5281 5282 5282